Location: B�hl
(48.6968°N, 8.1352°E)
Time: 23:48:17
(UTC+00:00)

USA 305 - Pass Details

Date: 08 March 2021
Orbit: 567 x 574 km, 54.0° (Epoch: 18 April)

Event Time Altitude Azimuth Distance (km) Brightness Sun altitude
Rises 19:53:12 0° 297° (WNW) 2,781 7.8 -25.2°
Reaches altitude 10° 19:55:29 10° 294° (WNW) 1,879 6.6 -25.5°
Enters shadow 19:59:02 50° 253° (WSW) 727 3.6 -26.1°
